Flag for Canada Weather past 2 weeks in Iqaluit, Nunavut, Canada

Now
37 °F

Fog.


Feels Like: 29 °F
Forecast: 37 / 40 °F
Wind: 13 mph from Southeast

Location: Iqaluit

Current Time: Jul 29, 2015 at 2:29:56 PM

Latest Report: Jul 29, 2015 at 2:00 PM


Visibility: 30 mi

Pressure: 29.98 "Hg

Humidity: 93%

Dew point: 36 °F

Location of IqaluitLocation

Historic Weather in Iqaluit — Graph

°F

Iqaluit temperature yesterday

Maximum temperature yesterday: 45 °F (at 3:00 PM)
Minimum temperature yesterday: 36 °F (at 4:00 AM)
Average temperature yesterday: 40 °F

Past Weeks' High & Low Weather Summary

 TemperatureHumidityPressure
High54 °F (Jul 21, 5:00 PM)100% (Jul 15, 9:45 PM)30.21 "Hg (Jul 15, 9:45 PM)
Low32 °F (Jul 19, 1:00 AM)47% (Jul 21, 5:00 PM)29.54 "Hg (Jul 15, 5:00 PM)
Average41 °F84%30.00 "Hg
* Reported Jul 14 1:00 PM — Jul 29 1:00 PM, Iqaluit, Weather by CustomWeather, © 2015

Note: Actual official high and low records may vary slightly from our data, if they occured in-between our weather recording intervals... More about our weather records

Advertising

Iqaluit weather history for previous 24 hours

 ConditionsComfort  
Time TempWeatherWind HumidityBarometerVisibility
1:00 PM
Wed, Jul 29
37 °FFog.12 mph87%29.98 "Hg30 mi
12:00 PM39 °FFog.13 mph87%29.98 "Hg30 mi
11:00 AM37 °FLight rain. Fog.15 mph93%29.99 "Hg30 mi
10:00 AM39 °FLight rain. Fog.12 mph87%29.99 "Hg30 mi
9:00 AM37 °FFog.12 mph93%29.99 "Hg30 mi
8:00 AM37 °FFog.10 mph93%29.99 "Hg25 mi
7:00 AM36 °FPartly sunny.10 mph93%30.00 "Hg12 mi
6:00 AM36 °FMore clouds than sun.13 mph93%30.00 "Hg10 mi
5:00 AM37 °FBroken clouds.14 mph87%30.01 "Hg10 mi
4:00 AM37 °FOvercast.12 mph93%30.01 "Hg30 mi
3:00 AM37 °FMostly cloudy.7 mph93%30.00 "Hg20 mi
2:00 AM37 °FOvercast.13 mph93%30.01 "Hg15 mi
1:00 AM39 °FPassing clouds.14 mph87%30.01 "Hg15 mi
12:00 AM39 °FPassing clouds.15 mph87%30.02 "Hg15 mi
11:00 PM
Tue, Jul 28
39 °FOvercast.12 mph87%30.02 "Hg15 mi
10:00 PM41 °FMostly cloudy.13 mph81%30.02 "Hg20 mi
9:00 PM41 °FBroken clouds.8 mph87%30.01 "Hg30 mi
8:10 PM41 °FBroken clouds.12 mph81%30.01 "Hg30 mi
7:00 PM43 °FBroken clouds.14 mph81%30.01 "Hg30 mi
6:00 PM43 °FScattered clouds.13 mph81%30.00 "Hg30 mi
5:00 PM43 °FScattered clouds.13 mph76%30.00 "Hg30 mi
4:00 PM45 °FScattered clouds.10 mph81%30.01 "Hg30 mi
3:00 PM45 °FPartly sunny.8 mph76%30.01 "Hg30 mi
2:00 PM43 °FBroken clouds.7 mph81%30.01 "Hg30 mi
Weather by CustomWeather, © 2015

See weather overviewHow to use our weather pages